| time (UTC) | temp F | wind direction | speed knots | gust knots | rain 1hr in | rain 24hr in | rain mn in | humidity % | barometer mb |
| 20260504000040 | 67 | 263 | 5.2 | 7.0 | 0.00 | 0.00 | 0.00 | 31 | 1005.3 |
| 20260503235539 | 67 | 319 | 5.2 | 6.1 | 0.00 | 0.00 | 0.00 | 30 | 1005.5 |
| 20260503235035 | 67 | 289 | 4.3 | 6.1 | 0.00 | 0.00 | 0.00 | 30 | 1005.4 |
| 20260503234533 | 68 | 260 | 7.8 | 9.6 | 0.00 | 0.00 | 0.00 | 30 | 1005.6 |
| 20260503234031 | 68 | 278 | 7.0 | 7.8 | 0.00 | 0.00 | 0.00 | 30 | 1005.5 |
| 20260503233527 | 68 | 259 | 6.1 | 7.8 | 0.00 | 0.00 | 0.00 | 30 | 1005.5 |
| 20260503233023 | 68 | 292 | 9.6 | 12.2 | 0.00 | 0.00 | 0.00 | 29 | 1005.7 |
| 20260503232520 | 67 | 279 | 7.0 | 7.8 | 0.00 | 0.00 | 0.00 | 30 | 1005.8 |
| 20260503232018 | 67 | 246 | 6.1 | 8.7 | 0.00 | 0.00 | 0.00 | 31 | 1005.9 |
| 20260503231516 | 67 | 324 | 5.2 | 7.0 | 0.00 | 0.00 | 0.00 | 31 | 1005.8 |
| 20260503231012 | 67 | 324 | 5.2 | 7.0 | 0.00 | 0.00 | 0.00 | 31 | 1005.9 |
| 20260503230509 | 67 | 324 | 5.2 | 7.0 | 0.00 | 0.00 | 0.00 | 31 | 1005.9 |
| 20260503230007 | 67 | 221 | 7.0 | 7.8 | 0.00 | 0.00 | 0.00 | 30 | 1006.3 |
| 20260503225503 | 67 | 221 | 7.0 | 7.8 | 0.00 | 0.00 | 0.00 | 30 | 1005.9 |
| 20260503224958 | 67 | 241 | 5.2 | 7.0 | 0.00 | 0.00 | 0.00 | 30 | 1006.2 |
| 20260503224455 | 67 | 241 | 5.2 | 7.0 | 0.00 | 0.00 | 0.00 | 30 | 1006.0 |
| 20260503223953 | 67 | 241 | 5.2 | 7.0 | 0.00 | 0.00 | 0.00 | 30 | 1006.2 |
| 20260503223451 | 67 | 241 | 5.2 | 7.0 | 0.00 | 0.00 | 0.00 | 30 | 1006.4 |
| 20260503222946 | 68 | 246 | 7.8 | 9.6 | 0.00 | 0.00 | 0.00 | 31 | 1006.3 |
| 20260503222445 | 68 | 263 | 6.1 | 7.8 | 0.00 | 0.00 | 0.00 | 30 | 1006.4 |
| 20260503221943 | 68 | 274 | 7.0 | 8.7 | 0.00 | 0.00 | 0.00 | 32 | 1006.1 |
| 20260503221441 | 68 | 274 | 7.0 | 8.7 | 0.00 | 0.00 | 0.00 | 32 | 1006.4 |
| 20260503220937 | 68 | 274 | 7.0 | 8.7 | 0.00 | 0.00 | 0.00 | 32 | 1006.4 |
| 20260503220434 | 68 | 274 | 7.0 | 8.7 | 0.00 | 0.00 | 0.00 | 32 | 1006.4 |
| 20260503215931 | 68 | 274 | 7.0 | 8.7 | 0.00 | 0.00 | 0.00 | 32 | 1006.4 |
| 20260503215428 | 68 | 274 | 7.0 | 8.7 | 0.00 | 0.00 | 0.00 | 32 | 1006.7 |
| 20260503214926 | 68 | 274 | 7.0 | 8.7 | 0.00 | 0.00 | 0.00 | 32 | 1006.6 |
| 20260503214423 | 68 | 274 | 7.0 | 8.7 | 0.00 | 0.00 | 0.00 | 32 | 1006.6 |
| 20260503213920 | 68 | 269 | 7.8 | 9.6 | 0.00 | 0.00 | 0.00 | 29 | 1006.8 |
| 20260503213418 | 68 | 269 | 7.8 | 9.6 | 0.00 | 0.00 | 0.00 | 29 | 1006.9 |
| 20260503212914 | 68 | 300 | 9.6 | 13.0 | 0.00 | 0.00 | 0.00 | 29 | 1007.1 |
| 20260503212412 | 69 | 226 | 3.5 | 7.8 | 0.00 | 0.00 | 0.00 | 30 | 1007.0 |
| 20260503211909 | 68 | 245 | 6.1 | 11.3 | 0.00 | 0.00 | 0.00 | 31 | 1007.1 |
| 20260503211406 | 68 | 315 | 6.1 | 7.8 | 0.00 | 0.00 | 0.00 | 28 | 1007.4 |
| 20260503210901 | 68 | 308 | 3.5 | 7.8 | 0.00 | 0.00 | 0.00 | 32 | 1007.2 |
| 20260503210359 | 68 | 291 | 7.8 | 11.3 | 0.00 | 0.00 | 0.00 | 30 | 1007.4 |
| 20260503205853 | 68 | 343 | 3.5 | 7.0 | 0.00 | 0.00 | 0.00 | 35 | 1007.6 |
| 20260503205350 | 68 | 276 | 5.2 | 11.3 | 0.00 | 0.00 | 0.00 | 31 | 1007.7 |
| 20260503204846 | 67 | 244 | 7.0 | 8.7 | 0.00 | 0.00 | 0.00 | 32 | 1007.7 |
| 20260503204344 | 67 | 354 | 3.5 | 7.0 | 0.00 | 0.00 | 0.00 | 36 | 1007.7 |
| 20260503203841 | 67 | 256 | 5.2 | 8.7 | 0.00 | 0.00 | 0.00 | 36 | 1007.9 |
| 20260503203338 | 66 | 324 | 3.5 | 9.6 | 0.00 | 0.00 | 0.00 | 34 | 1008.0 |
| 20260503202835 | 66 | 276 | 4.3 | 7.8 | 0.00 | 0.00 | 0.00 | 34 | 1008.1 |
| 20260503202333 | 66 | 300 | 3.5 | 5.2 | 0.00 | 0.00 | 0.00 | 35 | 1008.1 |
| 20260503201831 | 66 | 0 | 5.2 | 12.2 | 0.00 | 0.00 | 0.00 | 35 | 1008.3 |
| 20260503201327 | 65 | 306 | 5.2 | 9.6 | 0.00 | 0.00 | 0.00 | 36 | 1008.3 |
| 20260503200826 | 65 | 2 | 6.1 | 12.2 | 0.00 | 0.00 | 0.00 | 33 | 1008.4 |
| 20260503200321 | 66 | 308 | 7.0 | 7.8 | 0.00 | 0.00 | 0.00 | 33 | 1008.4 |
| 20260503195819 | 66 | 347 | 6.1 | 8.7 | 0.00 | 0.00 | 0.00 | 31 | 1008.5 |
| 20260503195315 | 66 | 296 | 7.0 | 8.7 | 0.00 | 0.00 | 0.00 | 31 | 1008.7 |
| 20260503194813 | 66 | 314 | 3.5 | 6.1 | 0.00 | 0.00 | 0.00 | 34 | 1008.8 |
| 20260503194308 | 66 | 259 | 7.8 | 11.3 | 0.00 | 0.00 | 0.00 | 38 | 1008.6 |
| 20260503193804 | 65 | 313 | 7.0 | 8.7 | 0.00 | 0.00 | 0.00 | 34 | 1008.8 |
| 20260503193301 | 66 | 207 | 9.6 | 11.3 | 0.00 | 0.00 | 0.00 | 33 | 1008.7 |
| 20260503192756 | 66 | 207 | 9.6 | 11.3 | 0.00 | 0.00 | 0.00 | 33 | 1008.9 |
| 20260503192252 | 65 | 340 | 7.0 | 7.8 | 0.00 | 0.00 | 0.00 | 35 | 1008.9 |
| 20260503191749 | 65 | 324 | 4.3 | 6.1 | 0.00 | 0.00 | 0.00 | 35 | 1008.9 |
| 20260503191246 | 65 | 309 | 5.2 | 6.1 | 0.00 | 0.00 | 0.00 | 37 | 1009.1 |
| 20260503190743 | 65 | 322 | 4.3 | 7.8 | 0.00 | 0.00 | 0.00 | 35 | 1009.0 |
| 20260503190240 | 65 | 294 | 5.2 | 8.7 | 0.00 | 0.00 | 0.00 | 33 | 1009.1 |
| 20260503185737 | 64 | 267 | 6.1 | 8.7 | 0.00 | 0.00 | 0.00 | 34 | 1009.1 |
| 20260503185232 | 64 | 328 | 4.3 | 6.1 | 0.00 | 0.00 | 0.00 | 34 | 1009.3 |
| 20260503184727 | 64 | 294 | 4.3 | 8.7 | 0.00 | 0.00 | 0.00 | 33 | 1009.5 |
| 20260503184224 | 64 | 283 | 3.5 | 6.1 | 0.00 | 0.00 | 0.00 | 36 | 1009.2 |
| 20260503183720 | 64 | 15 | 7.0 | 9.6 | 0.00 | 0.00 | 0.00 | 37 | 1009.3 |
| 20260503183217 | 64 | 314 | 2.6 | 7.0 | 0.00 | 0.00 | 0.00 | 36 | 1009.6 |
| 20260503182716 | 64 | 330 | 1.7 | 7.8 | 0.00 | 0.00 | 0.00 | 33 | 1009.6 |
| 20260503182214 | 63 | 287 | 7.0 | 8.7 | 0.00 | 0.00 | 0.00 | 33 | 1009.7 |
| 20260503181710 | 63 | 348 | 3.5 | 9.6 | 0.00 | 0.00 | 0.00 | 35 | 1009.9 |
| 20260503181207 | 64 | 317 | 5.2 | 7.0 | 0.00 | 0.00 | 0.00 | 34 | 1010.0 |
| 20260503180704 | 63 | 10 | 3.5 | 5.2 | 0.00 | 0.00 | 0.00 | 38 | 1010.2 |
| 20260503180202 | 62 | 250 | 1.7 | 5.2 | 0.00 | 0.00 | 0.00 | 41 | 1010.2 |
| 20260503175659 | 62 | 5 | 5.2 | 7.8 | 0.00 | 0.00 | 0.00 | 35 | 1010.4 |
| 20260503175156 | 62 | 354 | 7.8 | 8.7 | 0.00 | 0.00 | 0.00 | 34 | 1010.4 |
| 20260503174652 | 62 | 64 | 7.0 | 11.3 | 0.00 | 0.00 | 0.00 | 35 | 1010.3 |
| 20260503174150 | 63 | 347 | 3.5 | 7.0 | 0.00 | 0.00 | 0.00 | 35 | 1010.3 |
| 20260503173644 | 62 | 243 | 4.3 | 9.6 | 0.00 | 0.00 | 0.00 | 36 | 1010.5 |
| 20260503173141 | 61 | 351 | 5.2 | 12.2 | 0.00 | 0.00 | 0.00 | 36 | 1010.4 |
| 20260503172638 | 62 | 293 | 3.5 | 7.0 | 0.00 | 0.00 | 0.00 | 38 | 1010.6 |
| 20260503172135 | 62 | 316 | 5.2 | 11.3 | 0.00 | 0.00 | 0.00 | 36 | 1010.5 |
| 20260503171632 | 61 | 253 | 3.5 | 9.6 | 0.00 | 0.00 | 0.00 | 37 | 1010.5 |
| 20260503171129 | 62 | 26 | 4.3 | 7.0 | 0.00 | 0.00 | 0.00 | 37 | 1010.6 |
| 20260503170626 | 62 | 268 | 2.6 | 7.0 | 0.00 | 0.00 | 0.00 | 38 | 1010.7 |
| 20260503170123 | 62 | 328 | 5.2 | 11.3 | 0.00 | 0.00 | 0.00 | 36 | 1010.6 |
| 20260503150515 | 57 | 324 | 6.1 | 7.8 | 0.00 | 0.00 | 0.00 | 42 | 1010.7 |
| 20260503131408 | 52 | 154 | 4.3 | 7.8 | 0.00 | 0.00 | 0.00 | 65 | 1010.2 |
| 20260503130904 | 52 | 29 | 4.3 | 6.1 | 0.00 | 0.00 | 0.00 | 65 | 1010.1 |
| 20260503130402 | 51 | 319 | 6.1 | 7.8 | 0.00 | 0.00 | 0.00 | 66 | 1010.1 |
| 20260503110805 | 48 | 357 | 2.6 | 6.1 | 0.00 | 0.00 | 0.00 | 71 | 1008.9 |
| 20260503110303 | 48 | 19 | 1.7 | 5.2 | 0.00 | 0.00 | 0.00 | 71 | 1008.8 |
| 20260503100229 | 47 | 48 | 0.9 | 1.7 | 0.00 | 0.00 | 0.00 | 71 | 1008.5 |
| 20260503090154 | 48 | 124 | 1.7 | 2.6 | 0.00 | 0.00 | 0.00 | 68 | 1007.9 |
| 20260503081630 | 50 | 341 | 3.5 | 3.5 | 0.00 | 0.00 | 0.00 | 66 | 1007.2 |
| 20260503081126 | 50 | 327 | 1.7 | 5.2 | 0.00 | 0.00 | 0.00 | 65 | 1007.2 |
| 20260503080622 | 51 | 328 | 2.6 | 3.5 | 0.00 | 0.00 | 0.00 | 65 | 1007.2 |
| 20260503080119 | 51 | 343 | 3.5 | 5.2 | 0.00 | 0.00 | 0.00 | 65 | 1007.1 |
| 20260503072556 | 50 | 233 | 0.9 | 1.7 | 0.00 | 0.00 | 0.00 | 69 | 1006.9 |
| 20260503072054 | 50 | 235 | 0.9 | 1.7 | 0.00 | 0.00 | 0.00 | 70 | 1007.0 |
| 20260503071550 | 48 | 226 | 0.0 | 0.9 | 0.00 | 0.00 | 0.00 | 74 | 1006.8 |
| 20260503071047 | 48 | 232 | 0.9 | 1.7 | 0.00 | 0.00 | 0.00 | 75 | 1006.8 |
| 20260503070543 | 47 | 224 | 0.0 | 0.0 | 0.00 | 0.00 | 0.00 | 78 | 1006.7 |
| 20260503055003 | 55 | 206 | 2.6 | 2.6 | 0.00 | 0.00 | 0.00 | 59 | 1007.0 |
| 20260503054458 | 55 | 311 | 0.9 | 1.7 | 0.00 | 0.00 | 0.00 | 61 | 1007.0 |
| 20260503053956 | 55 | 147 | 0.0 | 2.6 | 0.00 | 0.00 | 0.00 | 58 | 1006.8 |
| 20260503053454 | 54 | 270 | 0.9 | 2.6 | 0.00 | 0.00 | 0.00 | 59 | 1007.0 |
| 20260503052950 | 53 | 227 | 0.0 | 5.2 | 0.00 | 0.00 | 0.00 | 63 | 1007.0 |
| 20260503052448 | 53 | 296 | 2.6 | 2.6 | 0.00 | 0.00 | 0.00 | 66 | 1006.6 |
| 20260503051944 | 51 | 185 | 0.9 | 1.7 | 0.00 | 0.00 | 0.00 | 72 | 1006.8 |
| 20260503051440 | 51 | 302 | 0.9 | 0.9 | 0.00 | 0.00 | 0.00 | 73 | 1006.8 |
| 20260503050937 | 51 | 195 | 0.0 | 0.0 | 0.00 | 0.00 | 0.00 | 72 | 1006.9 |
| 20260503050433 | 52 | 277 | 0.0 | 0.0 | 0.00 | 0.00 | 0.00 | 71 | 1006.8 |
| 20260503045931 | 52 | 260 | 0.9 | 0.9 | 0.00 | 0.00 | 0.00 | 69 | 1006.7 |
| 20260503045429 | 51 | 175 | 0.0 | 0.9 | 0.00 | 0.00 | 0.00 | 69 | 1006.8 |
| 20260503044925 | 53 | 205 | 0.0 | 0.9 | 0.00 | 0.00 | 0.00 | 68 | 1006.8 |
| 20260503044422 | 53 | 338 | 1.7 | 2.6 | 0.00 | 0.00 | 0.00 | 65 | 1006.9 |
| 20260503043920 | 55 | 276 | 1.7 | 1.7 | 0.00 | 0.00 | 0.00 | 60 | 1006.7 |
| 20260503043416 | 55 | 226 | 1.7 | 2.6 | 0.00 | 0.00 | 0.00 | 59 | 1006.6 |
| 20260503042912 | 55 | 166 | 0.9 | 1.7 | 0.00 | 0.00 | 0.00 | 60 | 1006.6 |
| 20260503042409 | 56 | 235 | 0.0 | 1.7 | 0.00 | 0.00 | 0.00 | 60 | 1006.8 |
| 20260503041905 | 57 | 235 | 0.9 | 2.6 | 0.00 | 0.00 | 0.00 | 55 | 1006.8 |
| 20260503041403 | 57 | 199 | 3.5 | 3.5 | 0.00 | 0.00 | 0.00 | 54 | 1006.8 |
| 20260503040900 | 57 | 239 | 0.9 | 5.2 | 0.00 | 0.00 | 0.00 | 53 | 1006.7 |
| 20260503040357 | 57 | 216 | 2.6 | 3.5 | 0.00 | 0.00 | 0.00 | 52 | 1006.7 |
| 20260503035854 | 57 | 239 | 2.6 | 2.6 | 0.00 | 0.00 | 0.00 | 51 | 1007.0 |
| 20260503035351 | 58 | 227 | 1.7 | 2.6 | 0.00 | 0.00 | 0.00 | 50 | 1007.0 |
| 20260503034848 | 58 | 186 | 0.9 | 3.5 | 0.00 | 0.00 | 0.00 | 49 | 1007.0 |
| 20260503034346 | 58 | 181 | 0.9 | 5.2 | 0.00 | 0.00 | 0.00 | 47 | 1007.0 |
| 20260503033843 | 59 | 243 | 1.7 | 3.5 | 0.00 | 0.00 | 0.00 | 47 | 1007.0 |
| 20260503033340 | 59 | 224 | 2.6 | 2.6 | 0.00 | 0.00 | 0.00 | 47 | 1007.1 |
| 20260503032838 | 59 | 218 | 2.6 | 2.6 | 0.00 | 0.00 | 0.00 | 46 | 1007.2 |
| 20260503032337 | 59 | 249 | 1.7 | 5.2 | 0.00 | 0.00 | 0.00 | 46 | 1007.2 |
| 20260503031834 | 60 | 202 | 3.5 | 3.5 | 0.00 | 0.00 | 0.00 | 44 | 1007.4 |
| 20260503031331 | 60 | 235 | 2.6 | 7.8 | 0.00 | 0.00 | 0.00 | 44 | 1007.4 |
| 20260503030828 | 60 | 135 | 1.7 | 7.0 | 0.00 | 0.00 | 0.00 | 43 | 1007.2 |
| 20260503030324 | 60 | 236 | 2.6 | 7.0 | 0.00 | 0.00 | 0.00 | 42 | 1007.6 |
| 20260503025821 | 60 | 31 | 0.9 | 2.6 | 0.00 | 0.00 | 0.00 | 44 | 1007.5 |
| 20260503025319 | 60 | 239 | 1.7 | 3.5 | 0.00 | 0.00 | 0.00 | 43 | 1007.7 |
| 20260503024815 | 60 | 202 | 1.7 | 5.2 | 0.00 | 0.00 | 0.00 | 42 | 1007.8 |
| 20260503024312 | 60 | 227 | 4.3 | 7.0 | 0.00 | 0.00 | 0.00 | 42 | 1007.9 |
| 20260503023809 | 60 | 196 | 1.7 | 5.2 | 0.00 | 0.00 | 0.00 | 43 | 1007.9 |
| 20260503023306 | 60 | 208 | 2.6 | 3.5 | 0.00 | 0.00 | 0.00 | 40 | 1007.8 |
| 20260503022803 | 61 | 210 | 1.7 | 7.0 | 0.00 | 0.00 | 0.00 | 40 | 1007.6 |
| 20260503022304 | 61 | 254 | 4.3 | 6.1 | 0.00 | 0.00 | 0.00 | 38 | 1007.8 |
| 20260503021759 | 60 | 163 | 1.7 | 7.0 | 0.00 | 0.00 | 0.00 | 40 | 1007.8 |
| 20260503021255 | 60 | 243 | 1.7 | 5.2 | 0.00 | 0.00 | 0.00 | 39 | 1007.8 |
| 20260503020753 | 60 | 212 | 1.7 | 5.2 | 0.00 | 0.00 | 0.00 | 39 | 1007.7 |
| 20260503020251 | 60 | 201 | 4.3 | 6.1 | 0.00 | 0.00 | 0.00 | 40 | 1007.6 |
| 20260503015747 | 59 | 195 | 2.6 | 3.5 | 0.00 | 0.00 | 0.00 | 40 | 1007.5 |
| 20260503015244 | 59 | 166 | 2.6 | 2.6 | 0.00 | 0.00 | 0.00 | 41 | 1007.6 |
| 20260503014739 | 59 | 162 | 0.9 | 3.5 | 0.00 | 0.00 | 0.00 | 41 | 1007.9 |
| 20260503014238 | 59 | 203 | 0.9 | 2.6 | 0.00 | 0.00 | 0.00 | 41 | 1008.1 |
| 20260503013735 | 60 | 172 | 1.7 | 5.2 | 0.00 | 0.00 | 0.00 | 40 | 1008.1 |
| 20260503013232 | 60 | 220 | 1.7 | 2.6 | 0.00 | 0.00 | 0.00 | 39 | 1007.9 |
| 20260503012730 | 60 | 237 | 1.7 | 3.5 | 0.00 | 0.00 | 0.00 | 38 | 1008.1 |
| 20260503012226 | 61 | 146 | 1.7 | 5.2 | 0.00 | 0.00 | 0.00 | 38 | 1008.1 |
| 20260503011723 | 62 | 242 | 0.9 | 3.5 | 0.00 | 0.00 | 0.00 | 37 | 1008.2 |
| 20260503011220 | 62 | 183 | 1.7 | 6.1 | 0.00 | 0.00 | 0.00 | 37 | 1008.1 |
| 20260503010716 | 62 | 218 | 0.9 | 6.1 | 0.00 | 0.00 | 0.00 | 37 | 1008.2 |
| 20260503010213 | 62 | 220 | 0.9 | 1.7 | 0.00 | 0.00 | 0.00 | 36 | 1008.4 |
| 20260503005711 | 63 | 155 | 1.7 | 3.5 | 0.00 | 0.00 | 0.00 | 37 | 1008.6 |
| 20260503005208 | 64 | 183 | 0.9 | 7.0 | 0.00 | 0.00 | 0.00 | 35 | 1008.5 |
| 20260503004704 | 64 | 215 | 4.3 | 5.2 | 0.00 | 0.00 | 0.00 | 35 | 1008.6 |
| 20260503004203 | 64 | 191 | 1.7 | 5.2 | 0.00 | 0.00 | 0.00 | 35 | 1008.8 |
| 20260503003659 | 63 | 251 | 3.5 | 5.2 | 0.00 | 0.00 | 0.00 | 35 | 1008.9 |
| 20260503003156 | 64 | 215 | 0.9 | 2.6 | 0.00 | 0.00 | 0.00 | 37 | 1009.0 |
| 20260503002653 | 63 | 214 | 1.7 | 7.0 | 0.00 | 0.00 | 0.00 | 36 | 1009.0 |
| 20260503002149 | 64 | 239 | 1.7 | 8.7 | 0.00 | 0.00 | 0.00 | 36 | 1009.2 |
| 20260503001646 | 63 | 234 | 3.5 | 7.8 | 0.00 | 0.00 | 0.00 | 36 | 1009.1 |
| 20260503001143 | 63 | 233 | 3.5 | 6.1 | 0.00 | 0.00 | 0.00 | 36 | 1009.4 |
| 20260503000641 | 64 | 233 | 5.2 | 7.0 | 0.00 | 0.00 | 0.00 | 35 | 1009.5 |